Location: *
(50.2903°S, 172.5375°W)
Time: 11:08:01
(UTC+00:00)

UNK - Pass Details

Date: 17 November 2019
Orbit: 667 x 685 km, 98.1° (Epoch: 15 December)

Event Time Altitude Azimuth Distance (km) Brightness Sun altitude
Rises 14:32:41 0° 168° (SSE) 3,075 8.2 -8.2°
Reaches altitude 10° 14:34:57 10° 170° (S) 2,150 7.2 -7.9°
Maximum altitude 14:39:37 70° 252° (WSW) 729 3.8 -7.4°
Drops below altitude 10° 14:44:14 10° 335° (NNW) 2,112 5.7 -6.8°
Enters shadow 14:45:09 - 336° (NNW) 2,487 6.1 -6.7°
